User: anonymous   Login
Location: Mentone
(34.5413°N, 85.5351°W)
Time: 08:49:08
(UTC-05:00)
Language:

Cosmos 2150 Rocket - Orbit

View from above orbital plane
View from above orbital plane
View from above satellite
View from above satellite

Ground track
Ground track

The orbit data is extracted from the following two-line orbital elements,

1 21419U 91041B   14294.12521148  .00000347  00000-0  13361-3 0  6444
2 21419 074.0399 273.5388 0039947 076.4754 356.8537 14.33581453221449
Epoch (UTC): 21 October 2014 03:00:18
Eccentricity: 0.0039947
inclination: 74.0399°
perigee height: 751 km
apogee height: 808 km
right ascension of ascending node: 273.5388°
argument of perigee: 76.4754°
revolutions per day: 14.33581453
mean anomaly at epoch: 356.8537°
orbit number at epoch: 22144

The dashed part of the orbit path shows where the satellite is in the earth's shadow,  

DLR